Tracking 31027 objects as of 19-Jul-2025
HD Live streaming from Space Station
objects crossing your sky now

OBJECT J

Track OBJECT J now!
10-day predictions


NORAD ID: 54690
Int'l Code: 2022-167J
Perigee: 492.6 km
Apogee: 501.4 km
Inclination: 97.7 °
Period: 94.4 minutes
Semi major axis: 6867 km
RCS: Unknown
Launch date: December 9, 2022
Source: People's Republic of China (PRC)
Launch site: Yellow Sea Launch Area, China (YSLA)
Your satellite tracking list
SKOLTECH-B2
Track 1 satellite(s)




NASA's NSSDC Master Catalog

Two Line Element Set (TLE):
1 54690U 22167J   25199.91718731  .00008757  00000-0  35038-3 0  9994
2 54690  97.6518 352.1200 0006363 190.8238 169.2863 15.25312948144390
Source of the keplerian elements: AFSPC